Theta_e
321 321 322 322 323 324 324 324 324 324 324 324 322 321 322 322 322 324 314 323 324 347 354 334 329 329 338 332 332 334 326 319 319 319 323 331 328 333 335 331 332 334 333 338 346
321 322 322 322 323 323 323 323 323 323 323 322 322 320 322 322 321 314 332 338 341 355 333 324 321 326 329 323 330 326 322 319 324 327 325 329 328 331 330 329 329 333 337 343 345
320 322 322 322 322 322 323 323 323 322 322 322 320 320 322 324 315 312 342 342 350 351 330 325 323 324 322 324 324 324 318 323 324 329 330 329 328 331 328 325 329 330 336 341 342
320 321 321 321 321 322 322 322 322 321 321 321 320 321 321 323 305 324 341 346 353 333 325 323 321 319 319 317 318 317 322 325 328 331 332 328 331 328 329 330 333 336 339 341 341
320 320 320 320 320 320 321 321 320 320 320 320 320 321 322 313 311 320 349 345 341 326 321 320 319 318 316 317 317 320 326 328 331 332 332 333 330 329 329 334 335 338 339 339 340
319 319 318 318 319 319 319 319 318 317 318 320 321 320 319 306 317 333 335 328 332 320 318 318 316 317 317 316 314 326 330 329 333 332 333 330 329 330 331 335 335 336 336 338 339
318 318 318 318 318 318 317 316 316 317 318 320 322 323 316 311 320 335 333 324 324 323 317 320 319 316 319 316 325 326 322 326 329 332 330 332 327 326 333 335 333 333 335 336 338
318 318 318 318 317 317 315 314 316 321 319 320 323 324 313 318 325 331 325 322 322 320 320 320 319 319 317 317 320 318 320 319 326 330 332 330 319 330 335 333 333 332 332 334 337
317 316 316 316 316 315 313 314 321 322 322 324 324 319 311 323 317 328 322 318 316 318 318 318 318 316 316 313 312 314 310 313 317 328 329 326 317 331 334 333 332 332 332 333 336
317 316 316 316 316 314 312 314 324 326 326 326 323 315 316 313 320 323 320 319 314 315 313 313 315 312 314 312 305 307 309 312 313 320 322 319 318 323 333 332 332 333 333 332 334
316 316 315 315 314 313 315 324 320 320 319 315 315 312 314 320 323 318 318 316 316 313 308 312 309 308 312 314 314 310 310 309 312 314 315 314 314 320 327 332 332 333 334 332 333
315 315 315 314 313 312 319 318 319 319 313 320 319 317 319 320 315 318 318 310 311 307 310 308 305 313 315 313 310 311 308 309 311 315 317 314 314 321 325 331 333 334 334 334 333
315 315 314 313 312 314 319 320 324 322 314 314 317 317 318 320 315 316 318 312 307 306 306 305 308 312 309 309 309 310 309 309 307 310 314 314 312 317 326 331 333 335 336 336 335
314 314 313 310 309 321 317 323 324 321 310 309 312 316 318 319 313 321 320 314 310 306 307 307 311 307 308 308 310 306 312 309 306 306 305 313 302 313 318 323 331 332 334 335 336
314 313 310 309 315 314 320 323 323 320 301 311 312 322 319 315 316 316 320 317 311 309 309 305 307 306 305 307 310 307 312 308 307 307 309 308 306 310 317 314 319 326 333 334 337
313 311 309 311 315 318 321 323 320 307 300 307 313 312 312 314 314 316 315 319 318 311 310 308 312 309 309 310 310 310 307 307 309 310 303 307 306 307 313 314 316 319 322 332 335
310 308 310 317 316 322 322 319 307 301 311 306 308 312 311 310 311 313 311 311 309 304 305 308 308 311 311 307 309 308 306 299 300 301 301 309 306 309 314 316 317 317 321 323 334
308 306 312 317 323 322 321 313 301 304 308 311 311 311 308 311 311 311 311 308 312 311 309 305 303 310 313 309 307 306 305 301 297 299 302 307 301 307 315 318 319 320 323 324 331
307 321 324 325 324 322 316 304 305 307 310 309 309 307 308 309 309 310 310 310 312 313 306 306 305 312 312 314 311 308 304 309 304 306 301 304 308 313 316 315 316 317 320 325 332
315 324 321 323 325 321 312 301 306 311 311 311 307 308 306 307 306 308 309 313 311 314 316 310 305 311 312 313 313 310 312 303 304 297 296 302 305 306 311 312 315 316 318 322 331
315 319 321 325 324 316 306 307 307 313 313 310 309 308 308 307 308 308 309 310 312 313 315 313 309 308 310 309 308 308 306 307 307 306 300 298 303 314 313 315 315 316 318 322 326
315 314 324 325 314 315 309 308 303 311 313 312 312 311 310 309 308 308 308 310 315 313 309 313 310 305 308 313 313 312 310 309 303 302 305 303 303 316 316 317 318 318 321 325 331
314 318 326 322 310 311 313 310 311 310 310 310 309 310 312 310 306 309 309 314 314 313 311 312 307 303 305 309 312 308 311 311 310 309 305 302 304 317 317 319 320 320 324 328 333
314 311 317 320 318 311 310 310 309 310 309 310 310 311 310 309 312 309 309 313 313 315 318 315 309 306 302 306 309 306 308 310 309 305 305 305 308 313 315 316 319 320 324 327 336
314 310 310 310 312 311 310 309 307 307 310 310 309 309 308 307 309 309 311 312 313 313 315 314 307 309 309 309 309 308 307 308 308 308 305 308 309 313 316 317 319 325 329 332 336
308 306 312 309 308 309 303 308 307 309 308 309 308 309 309 308 310 308 310 311 311 314 313 315 307 310 307 309 309 306 308 309 309 309 309 309 309 317 319 322 324 325 328 331 335
312 314 309 302 305 306 307 307 306 307 310 310 308 308 308 309 310 312 313 313 312 311 312 311 309 307 303 308 307 303 307 309 310 312 311 306 312 317 317 320 324 327 331 332 334
Wind_Speed
11 11 11 12 12 12 12 11 12 12 12 12 12 11 9 9 13 8 9 1 4 13 8 10 7 6 6 3 3 2 3 7 5 2 5 3 3 2 2 6 1 3 2 7 17
11 12 12 12 12 12 12 12 12 12 12 11 11 10 9 7 9 12 4 6 7 14 14 12 8 7 5 2 1 4 4 6 4 4 1 1 2 6 6 8 5 5 6 15 18
12 12 12 13 13 13 13 12 12 12 11 10 10 9 8 10 7 3 2 10 16 16 10 10 5 7 6 3 2 2 5 5 3 5 1 0 2 3 3 5 1 6 13 17 16
13 13 13 13 14 14 14 13 13 12 12 10 8 8 6 7 2 6 5 10 16 15 12 10 9 7 6 3 1 5 3 3 4 2 3 5 1 3 4 5 2 10 15 16 17
13 14 14 14 14 14 14 14 13 13 12 9 7 5 7 8 4 4 3 13 17 13 15 11 10 5 7 2 5 4 5 2 1 3 2 3 7 7 4 3 8 13 14 15 14
14 14 15 15 15 15 15 15 15 14 12 8 6 4 8 9 4 3 5 18 17 15 14 10 4 4 6 4 6 6 5 1 0 1 1 5 3 5 4 8 10 13 13 13 13
16 16 16 15 15 16 16 16 17 14 10 7 6 6 8 5 3 3 9 15 14 15 11 9 3 8 2 6 2 3 7 3 2 1 0 4 9 6 4 10 11 13 12 13 12
17 18 17 17 16 16 17 18 15 13 6 6 7 7 6 4 3 7 7 10 11 8 9 4 4 6 7 2 6 8 5 2 5 0 3 6 5 4 7 11 12 14 12 12 14
17 18 18 18 17 16 16 16 11 4 8 9 8 6 2 5 8 10 9 13 14 8 4 4 8 10 5 11 9 7 7 5 2 1 1 5 9 6 8 11 12 13 14 13 13
18 18 18 17 15 14 15 14 3 11 7 5 4 7 6 5 10 11 6 12 12 12 9 10 9 11 12 10 10 2 5 2 5 3 6 9 10 6 10 12 12 13 14 14 15
19 19 18 17 16 13 8 6 8 8 8 6 3 3 5 8 12 11 11 12 11 15 14 14 12 16 15 14 10 6 10 11 8 5 7 8 11 9 7 13 13 14 15 16 16
19 18 17 16 15 10 8 6 5 7 6 10 9 7 4 3 11 13 13 12 12 15 16 9 18 17 10 5 11 11 12 12 3 0 9 14 17 8 9 13 15 16 16 18 17
20 18 17 15 15 5 7 7 2 6 7 7 5 8 8 9 8 18 17 9 13 16 15 17 1 15 9 14 14 15 15 12 11 11 15 10 14 5 5 9 12 15 16 18 19
20 18 15 16 4 2 6 4 4 5 7 9 8 6 9 6 9 8 19 11 7 13 11 12 10 4 15 20 14 15 12 12 12 9 9 1 11 6 4 6 11 14 18 19 20
20 18 15 7 7 6 6 1 4 6 7 8 7 6 8 13 11 11 17 14 12 9 9 7 9 14 15 12 12 15 13 11 10 11 10 14 8 9 7 9 9 13 17 18 19
21 18 10 6 5 5 3 3 5 8 3 7 7 8 13 16 7 10 16 12 9 9 12 15 5 5 13 15 16 9 10 10 9 11 13 15 10 8 2 3 6 10 1 12 19
23 17 6 2 3 0 4 6 7 8 3 8 6 10 15 15 10 13 18 19 11 12 14 15 16 15 10 9 7 11 13 9 11 11 12 2 7 11 14 12 11 10 10 6 13
24 9 7 4 2 5 6 8 7 3 1 3 3 6 11 16 12 12 15 17 19 14 3 9 13 18 13 18 12 17 16 12 10 11 9 7 6 6 6 12 11 9 9 6 8
22 5 4 3 4 5 8 8 4 1 2 2 5 11 12 11 8 13 15 17 17 16 9 6 7 5 5 12 16 14 12 17 19 14 11 13 16 9 11 8 7 10 4 4 6
5 3 4 3 3 7 8 6 2 1 4 4 7 4 10 15 13 12 12 11 17 16 18 4 8 10 14 8 9 16 8 11 11 16 16 11 9 8 7 6 6 3 3 3 4
5 5 5 3 5 7 9 2 3 3 3 4 3 5 7 7 14 13 11 6 10 11 16 16 12 6 7 13 12 9 13 14 14 10 10 11 9 8 4 8 8 7 5 5 5
5 4 3 4 7 3 7 3 1 4 4 4 6 8 9 6 12 12 10 6 3 7 10 18 10 13 17 13 6 14 14 20 13 17 12 10 12 12 6 10 10 10 6 3 3
6 3 3 5 6 7 2 5 4 5 4 3 5 4 2 8 7 9 5 6 3 10 8 9 10 12 15 13 13 12 16 14 14 15 17 15 10 4 5 9 10 9 8 5 3
5 3 4 3 2 7 4 7 7 3 4 4 6 6 7 10 8 4 10 7 2 3 4 4 14 11 13 7 6 5 9 11 15 16 15 17 20 15 14 11 9 4 7 5 7
3 5 4 2 4 4 5 2 6 6 4 3 5 5 5 8 10 12 8 8 8 7 5 8 13 14 14 18 15 13 15 15 15 14 18 19 19 14 12 11 9 3 4 4 8
6 5 2 4 4 6 5 5 8 7 6 8 9 3 6 9 7 9 5 7 11 11 11 10 14 12 15 16 18 21 18 19 18 18 18 17 21 16 13 6 11 9 5 5 7
3 1 6 3 3 5 2 4 2 2 5 6 5 9 10 4 7 9 9 11 8 9 10 10 11 10 16 15 15 20 17 20 22 20 17 18 17 13 10 9 9 10 9 6 4
Wind_Direction
353 346 340 338 335 333 331 330 332 331 330 328 329 329 322 316 286 216 246 111 152 159 216 154 190 185 207 244 289 318 288 46 57 249 107 133 192 141 127 145 175 59 10 117 140
349 340 339 338 334 332 330 330 331 331 329 329 328 324 316 316 264 251 202 138 138 167 175 181 180 188 222 216 214 295 330 21 1 342 284 70 316 157 196 164 166 115 108 130 153
344 340 338 336 332 331 328 326 327 329 326 327 327 313 314 295 266 182 25 159 162 185 193 206 200 219 252 245 145 56 334 359 34 347 262 239 224 171 252 198 173 140 145 154 162
344 339 336 334 332 329 326 325 325 325 322 321 319 308 303 252 241 80 117 158 164 191 180 185 191 211 254 290 4 294 8 308 350 340 211 233 325 245 243 26 57 126 152 161 173
343 339 336 334 331 326 324 322 321 319 315 309 302 299 254 223 257 49 150 161 172 197 187 189 198 231 271 302 288 284 350 348 261 320 230 245 234 276 230 142 133 135 157 168 179
343 339 335 333 329 326 323 321 318 311 303 293 272 259 249 246 64 10 151 166 178 194 200 207 256 268 292 297 315 342 343 321 300 29 114 250 223 241 132 149 149 156 164 169 177
339 336 333 331 329 327 324 318 313 300 287 266 236 245 250 277 13 116 151 178 187 201 201 206 284 233 327 256 25 296 296 234 138 8 247 283 218 232 137 171 168 172 170 165 175
336 333 330 329 328 326 324 320 311 292 245 200 205 242 267 111 72 163 156 158 176 209 247 185 251 281 264 324 238 273 248 297 88 142 119 269 8 47 167 185 177 179 173 176 176
333 330 327 327 325 323 326 316 307 82 143 165 204 253 201 141 197 156 176 165 171 169 167 180 222 249 217 244 244 205 298 341 88 185 249 259 333 105 184 197 185 186 179 187 181
329 326 324 323 319 320 316 298 55 154 162 212 264 237 211 176 142 155 167 156 166 174 175 199 211 222 223 236 246 308 287 286 328 75 265 285 283 281 188 213 211 194 193 192 193
327 325 323 322 321 319 281 188 203 179 209 264 80 327 122 104 150 172 150 167 176 186 199 199 220 220 225 228 286 280 289 288 293 315 295 306 301 285 224 208 212 209 201 201 203
324 323 322 322 324 321 229 251 23 358 273 213 244 256 208 325 163 165 176 183 189 201 210 180 230 229 248 230 239 250 268 274 331 19 297 315 306 275 216 214 212 207 207 209 203
323 322 322 321 322 229 246 265 25 328 255 151 195 226 194 206 191 173 195 203 201 209 202 228 151 233 205 220 238 241 262 288 305 304 277 284 280 191 166 210 220 216 214 212 206
321 322 323 321 274 123 232 153 240 299 256 135 180 166 184 218 214 184 201 196 199 216 211 240 236 203 231 237 228 253 251 274 282 274 280 72 296 268 229 228 211 217 217 216 209
321 320 320 280 333 227 63 313 279 219 234 137 135 109 168 202 110 180 189 206 223 204 209 210 212 219 232 230 232 262 272 263 270 268 283 271 246 278 198 254 247 204 215 219 216
323 320 310 185 215 285 282 284 219 228 177 137 132 178 175 202 188 132 178 228 248 233 222 265 135 250 246 237 241 259 221 225 245 254 257 254 245 279 71 219 303 307 211 202 212
328 325 214 230 65 225 253 211 229 257 145 150 150 173 191 181 176 182 187 197 203 207 218 212 226 225 230 213 187 202 222 230 216 220 254 57 258 270 300 293 281 293 293 240 205
328 315 183 281 284 293 216 222 249 41 261 119 176 174 197 185 204 194 192 205 215 231 275 213 199 206 194 229 213 208 240 252 242 251 268 124 250 240 276 296 292 281 265 267 221
314 178 192 95 220 238 230 223 340 181 28 249 174 206 198 198 242 198 213 215 203 210 240 201 224 146 232 211 224 222 233 253 273 259 263 275 273 253 259 292 270 233 239 265 225
305 235 73 53 194 240 235 265 244 301 308 236 248 236 211 189 203 199 186 209 213 210 231 240 264 207 176 223 231 255 280 213 231 265 268 268 264 265 294 349 327 239 235 306 221
246 224 96 317 265 225 237 240 233 173 272 265 258 245 249 218 218 200 191 140 217 222 223 237 246 232 189 209 230 179 228 235 280 281 284 281 272 39 258 291 302 299 319 298 281
293 225 80 280 224 251 239 218 26 228 205 241 272 275 261 219 227 234 213 229 148 193 201 220 233 239 239 245 283 287 227 224 229 235 233 276 283 300 278 306 316 301 301 320 251
332 335 126 270 250 211 163 225 277 249 225 252 247 247 242 253 246 247 225 102 184 208 197 169 223 246 239 215 217 236 235 247 258 257 260 264 269 198 299 271 281 278 277 261 217
291 253 145 206 316 295 255 235 242 195 258 282 295 252 240 231 224 236 230 167 155 234 335 229 252 236 273 285 14 228 229 251 266 254 253 247 259 272 284 297 306 308 283 260 183
351 60 11 344 137 293 258 333 253 234 226 240 214 273 284 259 229 226 241 187 200 146 215 254 247 258 255 276 278 259 271 271 264 266 266 276 278 270 260 272 314 348 289 253 182
335 334 324 288 269 262 167 230 261 252 264 246 263 265 283 266 305 314 270 242 241 178 236 231 264 272 269 262 266 266 259 262 257 261 260 267 266 275 291 321 296 299 279 260 197
24 220 283 131 256 256 295 307 310 300 224 276 318 292 262 344 327 311 295 293 289 276 244 252 251 231 254 260 265 260 259 251 252 251 252 251 256 253 265 277 296 320 327 312 278